Location: Canet
(43.3261°N, 5.3723°E)
Time: 18:40:16
(UTC+00:00)

ISS - Pass Details

Date: 24 January 2021
Orbit: 417 x 422 km, 51.6° (Epoch: 08 March)

Event Time Altitude Azimuth Distance (km) Brightness Sun altitude
Rises 17:42:55 0° 262° (W) 2,366 2.1 -11.6°
Reaches altitude 10° 17:45:09 10° 273° (W) 1,505 0.3 -11.9°
Maximum altitude 17:48:15 33° 339° (NNW) 737 -2.5 -12.5°
Enters shadow 17:50:24 16° 37° (NE) 1,177 -1.9 -12.9°
